Location: Bukit Nyuki
(2.5885°N, 113.7476°E)
Time: 15:03:42
(UTC+00:00)

ARIANE 5 R/B - Pass Details

Date: 18 May 2021
Orbit: 220 x 32369 km, 3.8° (Epoch: 15 June)

Event Time Altitude Azimuth Distance (km) Brightness Sun altitude
Exits shadow 20:11:11 85° 349° (NNW) 938 3.3 -29.4°
Maximum altitude 20:11:13 85° 4° (N) 944 3.3 -29.4°
Drops below altitude 10° 20:29:42 10° 92° (E) 8,613 9.2 -25.2°
Sets 20:53:29 0° 93° (E) 16,049 10.9 -19.7°
